Wind_Speed
36 37 39 39 41 42 42 42 43 43 44 45 44 45 45 46 46 45 45 46 46 46 46 46 46 47 47 48 48 49 49 49 50 50 49 50 49 49 50 50 51 51 51
35 37 38 39 40 41 42 42 43 43 43 45 45 45 46 47 47 47 47 47 47 47 47 46 47 47 48 48 48 49 49 50 49 50 50 50 50 50 49 48 49 49 50
35 36 37 38 39 41 42 43 43 43 43 44 45 46 46 47 48 48 48 48 48 48 47 45 46 46 46 47 47 48 48 48 49 50 50 51 51 50 48 47 48 49 49
35 36 36 37 38 40 42 43 43 43 43 44 44 45 46 46 47 48 48 47 48 49 47 46 46 45 45 45 45 47 48 48 50 51 51 51 50 50 49 48 49 49 49
34 35 36 36 37 39 40 42 42 42 43 44 44 44 45 46 46 46 46 46 46 48 47 46 45 45 46 45 44 46 48 49 50 51 50 50 49 50 50 49 49 49 49
34 35 36 36 36 37 38 39 41 41 42 43 43 43 43 43 44 45 46 47 47 46 46 45 45 44 45 47 46 47 47 48 49 49 48 49 49 49 49 48 49 49 50
33 34 35 36 36 36 37 37 38 39 39 40 40 41 42 42 42 43 44 45 45 45 44 45 45 45 44 45 46 46 46 46 46 47 47 47 48 49 49 49 50 50 50
31 33 34 36 36 36 37 37 38 38 38 38 38 39 40 41 42 42 43 44 44 43 43 44 46 45 44 43 45 46 45 45 45 45 45 45 46 47 48 48 49 50 49
30 31 33 34 35 36 37 37 37 36 36 37 37 38 40 40 41 42 42 42 43 42 43 43 44 45 44 43 43 44 44 44 45 45 45 45 45 46 47 47 48 49 48
29 30 31 31 32 33 34 35 35 35 36 36 36 37 38 39 40 40 40 40 41 42 43 42 42 43 44 44 43 43 43 43 43 44 44 45 45 45 47 47 47 47 47
28 29 29 29 29 30 30 32 33 34 34 35 36 36 37 37 37 37 38 38 38 39 41 41 41 41 42 42 42 42 43 43 42 42 43 42 43 44 44 45 45 46 46
28 28 29 29 28 29 29 30 31 32 33 34 34 35 35 36 35 35 35 36 36 37 38 39 40 41 41 41 41 41 42 41 41 41 41 42 42 42 42 44 44 44 45
27 28 28 29 28 28 28 28 29 30 31 32 33 33 34 34 33 32 32 34 35 36 36 37 38 39 40 41 41 41 41 40 40 39 40 40 40 41 41 42 43 43 44
27 28 28 28 28 27 27 28 28 29 30 30 31 32 32 32 33 33 33 33 33 34 35 36 38 38 38 39 40 41 41 40 40 40 39 40 40 40 40 40 41 41 42
26 26 27 28 28 27 27 27 28 28 29 29 30 31 31 31 32 32 32 33 33 34 35 36 37 37 37 37 39 40 40 39 40 40 40 40 39 39 39 39 39 40 40
25 26 26 26 27 27 27 27 28 28 28 29 29 29 29 30 30 31 32 33 33 33 34 35 35 35 35 36 36 37 38 38 38 39 39 40 39 38 38 38 38 38 38
25 25 25 26 26 26 27 27 28 28 28 29 29 29 30 30 31 32 32 32 33 33 33 33 34 34 34 34 35 36 37 37 37 37 37 38 37 36 36 35 35 34 34
24 24 24 25 25 25 26 26 27 28 28 29 30 30 30 30 31 31 31 31 32 32 32 32 32 32 32 33 33 34 34 34 34 35 35 35 33 32 33 32 31 31 31
24 24 24 25 25 25 26 26 27 27 28 29 29 29 30 31 31 30 30 30 30 30 29 30 31 31 32 32 32 32 32 31 31 32 32 32 32 32 31 30 30 30 31
24 24 24 24 25 25 25 25 25 26 27 28 29 29 29 30 30 30 30 30 30 29 29 30 31 31 32 32 32 31 30 29 29 29 30 30 30 30 30 30 29 29 28
24 24 23 23 23 23 24 24 25 25 26 27 28 28 28 29 29 29 29 29 29 28 28 28 29 29 30 30 29 28 27 27 27 27 27 28 28 28 27 27 27 27 27
24 24 23 22 23 23 24 24 25 25 26 26 27 26 26 27 27 28 27 27 27 27 27 27 27 26 26 25 25 25 25 24 24 23 23 23 25 25 25 25 25 25 25
24 24 23 23 23 23 24 24 24 25 25 26 26 26 26 26 25 26 25 25 25 25 24 25 25 24 23 23 23 22 21 20 20 20 20 21 22 22 23 23 23 23 23
24 24 24 24 24 24 24 24 24 24 25 25 25 24 24 24 24 23 23 23 22 22 22 22 21 21 20 19 19 19 19 19 19 19 19 20 20 21 22 22 22 21 20
24 23 24 24 24 24 23 24 23 24 23 23 23 22 22 22 22 21 21 20 20 19 19 19 17 17 17 18 17 17 17 17 17 18 19 19 20 20 21 20 20 19 19
24 24 24 24 24 24 24 23 23 23 23 22 21 20 20 19 19 18 17 17 17 16 16 15 15 15 16 16 16 16 16 16 16 17 17 18 19 19 19 19 18 18 17
Wind_Direction
257 257 257 256 255 255 256 256 257 257 257 258 258 257 258 259 261 262 263 264 264 265 267 269 268 267 266 265 265 265 265 266 266 265 266 266 265 265 265 265 264 264 264
258 259 259 258 257 256 256 257 257 258 258 259 259 258 259 259 261 262 264 264 265 265 266 268 268 267 266 265 266 265 265 265 265 265 265 265 264 265 265 265 264 264 264
259 259 260 259 257 256 256 257 257 258 259 259 260 260 260 261 261 262 264 265 265 265 266 268 268 267 267 266 266 265 264 265 266 266 266 266 264 264 263 264 265 265 265
262 261 261 260 258 256 256 256 257 258 259 260 260 261 261 262 263 263 264 265 265 265 265 266 267 267 268 268 268 266 266 266 265 265 266 266 265 264 263 264 265 265 265
265 263 262 261 260 259 258 257 258 258 260 261 261 261 262 262 263 263 263 265 265 266 265 265 266 266 267 269 271 269 268 266 266 266 265 265 264 264 264 264 264 265 265
267 265 263 263 262 262 261 261 260 260 261 261 261 262 262 264 265 265 264 264 265 265 265 265 265 267 268 269 270 270 269 267 266 265 265 265 264 264 264 264 264 265 266
268 267 266 265 266 265 264 264 263 263 263 262 261 262 263 264 266 266 266 265 265 264 264 264 265 267 270 270 271 270 269 268 266 265 265 266 265 265 265 265 266 266 266
269 269 269 268 268 267 265 265 264 264 263 263 262 262 264 265 266 267 267 266 264 264 265 265 265 266 268 271 273 270 269 268 266 266 266 266 266 265 266 267 268 267 265
270 271 271 271 270 270 268 266 265 264 264 264 265 264 265 267 267 267 267 266 264 264 266 267 267 267 268 270 273 271 269 268 267 267 266 267 268 267 268 268 269 269 269
272 273 273 273 272 272 271 267 264 263 264 264 266 267 268 268 268 267 267 266 266 266 266 265 266 267 268 270 270 269 267 267 268 268 268 267 268 268 269 270 270 271 271
273 273 273 273 272 271 270 268 264 264 264 265 266 267 268 269 269 268 268 267 266 266 267 266 266 267 268 269 268 268 267 267 268 269 269 269 269 269 269 269 269 270 271
274 273 272 271 270 269 269 269 265 264 264 265 267 268 269 270 270 270 270 269 268 269 269 267 266 267 268 267 268 268 267 267 268 269 269 269 269 269 270 270 270 270 270
274 273 272 271 269 269 269 268 267 265 265 266 267 269 270 271 270 269 270 272 271 270 269 268 268 269 268 267 268 269 268 268 268 268 269 269 270 269 270 271 270 269 269
273 272 272 271 269 269 268 267 266 267 267 268 270 271 271 270 269 270 271 273 272 271 269 269 270 270 270 270 271 272 270 269 268 268 269 271 271 270 270 270 269 268 267
275 274 272 270 269 268 267 267 267 269 270 272 273 272 271 271 270 271 272 273 274 273 271 270 270 270 271 272 271 272 270 270 269 268 269 271 272 271 271 271 270 268 267
277 276 273 272 270 269 268 268 269 271 272 273 274 274 272 272 272 272 273 273 273 273 273 273 270 270 271 272 274 273 270 272 272 270 270 270 271 271 271 270 269 268 267
281 279 277 274 272 271 271 270 271 272 273 274 274 273 273 273 273 273 273 273 274 275 275 274 270 270 270 272 274 274 273 273 273 271 269 270 269 270 270 268 267 266 267
283 282 280 278 276 274 273 273 273 273 275 276 275 273 274 274 274 274 275 275 275 276 275 272 271 271 271 274 276 277 276 273 272 271 270 269 269 269 268 265 265 266 268
284 283 282 281 280 278 277 277 277 277 278 277 276 276 275 275 276 276 276 276 277 277 276 273 272 272 274 276 276 277 276 274 272 271 269 268 267 266 265 265 266 267 270
285 285 284 283 282 280 280 280 280 281 281 281 279 278 277 275 274 275 275 276 277 276 275 273 273 274 275 275 275 276 276 274 272 269 267 265 265 264 264 264 265 268 270
284 285 285 285 284 283 283 283 282 282 283 284 283 281 279 277 275 274 276 276 276 276 274 274 274 275 277 275 275 276 275 273 270 268 266 264 264 263 262 263 265 269 271
282 283 283 285 286 287 287 285 284 284 285 285 285 283 280 278 276 275 276 277 278 278 276 275 276 275 276 275 275 275 275 272 267 266 265 263 261 262 262 264 267 270 272
283 282 282 284 287 289 288 286 285 286 286 286 286 283 281 279 278 276 275 276 278 278 277 277 275 274 273 274 276 275 272 268 265 265 266 265 265 265 266 267 269 270 271
284 284 284 285 287 289 289 288 287 287 287 287 287 285 282 278 276 276 275 276 276 276 276 276 274 272 272 274 275 272 269 268 267 265 265 267 268 268 268 268 268 268 269
284 284 284 284 287 290 290 290 288 287 288 288 286 284 282 280 277 276 276 275 275 275 276 276 270 269 272 275 276 273 269 268 266 265 265 267 269 269 269 268 267 265 264
284 284 284 285 287 288 290 290 290 289 287 286 284 284 282 280 277 275 273 273 278 277 276 275 271 273 273 276 278 278 277 271 268 268 266 266 267 268 269 267 267 266 263
Height
5694 5695 5696 5696 5697 5698 5699 5700 5701 5702 5703 5704 5705 5707 5708 5709 5709 5710 5710 5711 5711 5711 5711 5710 5710 5709 5709 5709 5709 5708 5709 5708 5708 5708 5709 5709 5709 5709 5709 5709 5710 5711 5712
5685 5685 5686 5686 5687 5688 5689 5690 5691 5691 5692 5693 5694 5696 5697 5697 5698 5698 5699 5699 5699 5699 5699 5699 5698 5698 5697 5697 5696 5696 5696 5696 5695 5695 5695 5697 5698 5697 5697 5697 5697 5698 5699
5676 5676 5677 5677 5677 5677 5678 5679 5680 5681 5681 5682 5683 5684 5685 5686 5686 5687 5687 5687 5687 5687 5687 5686 5686 5686 5685 5684 5684 5683 5683 5684 5683 5682 5682 5682 5683 5685 5686 5686 5686 5685 5686
5667 5667 5667 5667 5667 5667 5667 5668 5669 5670 5671 5671 5672 5672 5673 5674 5675 5675 5675 5674 5675 5675 5674 5674 5674 5673 5673 5672 5672 5671 5671 5670 5671 5670 5669 5669 5669 5670 5673 5675 5674 5673 5673
5657 5657 5657 5657 5657 5656 5657 5657 5658 5659 5660 5660 5661 5661 5662 5662 5662 5662 5663 5663 5662 5662 5662 5662 5662 5662 5661 5661 5660 5659 5658 5657 5657 5657 5657 5657 5657 5657 5658 5661 5661 5661 5660
5648 5648 5648 5647 5647 5647 5647 5647 5647 5648 5648 5649 5649 5650 5651 5651 5651 5651 5651 5651 5651 5651 5651 5650 5650 5650 5650 5649 5648 5647 5645 5644 5644 5644 5645 5645 5645 5645 5645 5646 5648 5648 5648
5639 5639 5638 5638 5637 5637 5637 5637 5637 5637 5638 5638 5639 5639 5639 5639 5639 5639 5639 5639 5639 5639 5639 5639 5639 5639 5638 5637 5636 5634 5633 5632 5632 5633 5633 5633 5633 5633 5632 5633 5634 5635 5636
5630 5630 5629 5628 5628 5627 5627 5627 5627 5627 5627 5628 5628 5628 5628 5628 5628 5628 5627 5628 5628 5628 5628 5628 5627 5627 5626 5625 5624 5623 5622 5621 5621 5621 5621 5621 5621 5620 5620 5620 5620 5621 5623
5622 5621 5620 5619 5618 5617 5617 5617 5617 5617 5617 5617 5617 5617 5617 5617 5617 5616 5616 5616 5617 5617 5617 5616 5616 5615 5615 5614 5612 5611 5610 5610 5610 5610 5610 5610 5609 5609 5608 5608 5607 5607 5609
5613 5612 5611 5610 5609 5608 5607 5607 5607 5607 5607 5607 5607 5607 5607 5606 5606 5605 5605 5605 5606 5606 5605 5605 5604 5604 5603 5603 5601 5600 5599 5599 5598 5598 5598 5598 5598 5597 5597 5596 5595 5594 5595
5604 5603 5602 5601 5600 5599 5598 5597 5597 5597 5597 5598 5598 5597 5597 5596 5595 5595 5595 5595 5595 5595 5594 5594 5593 5593 5593 5591 5590 5589 5588 5588 5587 5587 5587 5587 5586 5586 5585 5584 5583 5583 5582
5596 5594 5594 5593 5591 5591 5590 5589 5588 5588 5588 5588 5588 5587 5587 5586 5586 5585 5585 5585 5585 5584 5583 5583 5583 5583 5582 5581 5579 5578 5577 5577 5576 5576 5576 5575 5575 5574 5573 5572 5572 5571 5570
5588 5586 5585 5584 5583 5582 5581 5581 5580 5580 5579 5579 5578 5578 5577 5577 5576 5576 5576 5575 5574 5574 5573 5572 5572 5572 5571 5570 5569 5568 5567 5566 5565 5565 5565 5564 5563 5563 5562 5561 5560 5559 5559
5579 5578 5577 5576 5575 5574 5573 5573 5572 5572 5571 5570 5569 5569 5568 5567 5567 5566 5566 5565 5564 5564 5563 5562 5561 5561 5560 5559 5558 5557 5556 5555 5555 5554 5554 5553 5552 5552 5551 5550 5549 5548 5548
5571 5569 5568 5567 5567 5566 5565 5565 5564 5564 5563 5562 5561 5560 5559 5558 5558 5557 5557 5556 5555 5554 5553 5552 5551 5550 5550 5549 5547 5546 5545 5544 5543 5543 5542 5542 5541 5541 5540 5539 5538 5538 5538
5563 5562 5560 5559 5559 5558 5557 5557 5556 5555 5554 5553 5552 5551 5550 5550 5549 5549 5548 5547 5546 5544 5543 5542 5541 5540 5540 5539 5537 5535 5534 5533 5532 5531 5531 5531 5530 5530 5529 5528 5528 5528 5528
5555 5554 5553 5552 5551 5550 5549 5549 5548 5547 5546 5545 5544 5543 5542 5541 5540 5539 5538 5537 5536 5535 5533 5532 5531 5531 5530 5529 5527 5525 5524 5523 5521 5520 5520 5520 5520 5520 5519 5519 5519 5519 5519
5548 5547 5545 5544 5543 5542 5541 5540 5539 5538 5537 5536 5535 5533 5532 5531 5530 5529 5529 5528 5526 5525 5524 5523 5522 5521 5520 5519 5518 5516 5514 5512 5511 5510 5509 5509 5510 5510 5510 5510 5511 5511 5511
5542 5540 5538 5537 5535 5534 5533 5532 5531 5529 5528 5527 5525 5524 5522 5522 5521 5520 5519 5518 5517 5516 5514 5513 5512 5512 5511 5509 5508 5506 5505 5503 5501 5500 5500 5500 5501 5501 5501 5502 5503 5503 5503
5534 5533 5531 5530 5528 5526 5525 5524 5522 5521 5519 5517 5516 5514 5513 5512 5511 5510 5509 5508 5507 5506 5505 5504 5503 5502 5501 5500 5499 5497 5496 5495 5493 5492 5492 5492 5493 5493 5493 5494 5495 5495 5495
5527 5525 5524 5522 5520 5519 5517 5515 5514 5512 5511 5509 5507 5505 5503 5502 5501 5501 5500 5499 5498 5497 5496 5495 5494 5493 5492 5491 5489 5488 5487 5486 5485 5485 5485 5485 5485 5485 5485 5486 5487 5487 5487
5520 5518 5517 5515 5513 5511 5509 5508 5506 5504 5502 5500 5498 5497 5495 5494 5493 5492 5491 5490 5489 5488 5487 5486 5486 5485 5484 5483 5481 5480 5480 5479 5478 5478 5478 5478 5478 5478 5478 5479 5479 5479 5479
5512 5511 5509 5508 5506 5504 5502 5500 5498 5496 5494 5492 5490 5488 5487 5485 5484 5484 5483 5482 5481 5480 5479 5479 5478 5477 5477 5476 5475 5474 5473 5472 5472 5472 5472 5472 5472 5472 5472 5472 5472 5472 5472
5505 5504 5502 5501 5499 5497 5495 5493 5491 5489 5487 5485 5483 5481 5479 5478 5477 5476 5476 5475 5474 5473 5473 5472 5472 5471 5471 5470 5469 5468 5468 5467 5467 5466 5466 5466 5466 5466 5466 5466 5466 5466 5466
5498 5496 5495 5493 5492 5490 5488 5485 5483 5481 5479 5477 5475 5474 5472 5471 5470 5469 5469 5468 5468 5467 5467 5467 5466 5466 5466 5465 5464 5463 5463 5463 5462 5462 5461 5461 5461 5461 5460 5460 5460 5460 5460
5491 5489 5488 5486 5484 5482 5480 5478 5476 5474 5472 5471 5469 5467 5466 5465 5464 5463 5463 5463 5463 5462 5462 5461 5462 5461 5461 5461 5460 5459 5458 5457 5457 5457 5456 5456 5456 5456 5455 5455 5455 5455 5455